Tracking 28799 objects as of 18-Apr-2024
HD Live streaming from Space Station
objects crossing your sky now

COSMOS 940

Track COSMOS 940 now!
10-day predictions
COSMOS 940 is classified as:


NORAD ID: 10286
Int'l Code: 1977-079B
Perigee: 1,400.6 km
Apogee: 1,468.8 km
Inclination: 74.0 °
Period: 114.4 minutes
Semi major axis: 7805 km
RCS: 0.703 m2 (medium)
Launch date: August 24, 1977
Source: Commonwealth of Independent States (former USSR) (CIS)
Launch site: PLESETSK MISSILE AND SPACE COMPLEX (PKMTR)
Your satellite tracking list
Your tracking list is empty




NASA's NSSDC Master Catalog

Two Line Element Set (TLE):
1 10286U 77079B   24108.89998885  .00000022  00000-0  22567-3 0  9995
2 10286  74.0229 276.2860 0043633 343.5533 128.9242 12.58880803112723
Source of the keplerian elements: AFSPC